RADUGA-1M 3

Last updated on Mon Oct 20 2025 00:02:47 GMT+0000 (Coordinated Universal Time)

1 39375U 13062A 25292.13150993 .00000155 00000+0 00000+0 0 9999 2 39375 5.3488 75.2841 0002710 312.4388 82.4938 1.00271236 43691
UTC large
Height (km)
Speed (km/s)
/
Latitude / Longitude
Inclination (degrees)
Orbital Period (minutes)
Azimuth
Elevation
Range (km)
Doppler Factor

Next 0 passes for location: London (51.5072 / 0.1276)

Sorry there are no passes over London.